Change the Weather History Date:

Sunday, August 25, 2013

  Actual Average Record
Temperature  
Mean Temperature 78 °F -  
Max Temperature 84 °F 85 °F 95 °F (1982)
Min Temperature 75 °F 71 °F 65 °F (1990)
Cooling Degree Days 14    
Growing Degree Days 28 (Base 50)    
Moisture  
Dew Point 74 °F    
Average Humidity 81    
Maximum Humidity 94    
Minimum Humidity 74    
Precipitation  
Precipitation 0.12 in - - ()
Sea Level Pressure  
Sea Level Pressure 30.17 in    
Wind  
Wind Speed 11 mph (NE)    
Max Wind Speed 25 mph    
Max Gust Speed 29 mph    
Visibility 9 miles    
Events Rain    
Averages and records for this station are not official NWS values.
T = Trace of Precipitation, MM = Missing Value Source: NWS Daily Summary

Daily Weather History Graph

Daily Weather History Graph

Search for Another Location

Airport or City:

Trip Planner

Search our weather history database for the weather conditions in past years. The results will help you decide how hot, cold, wet, or windy it might be!

Date:

Astronomy

Aug. 25, 2013 Rise Set
Actual Time 6:58 AM EDT 7:55 PM EDT
Civil Twilight 6:34 AM EDT 8:20 PM EDT
Nautical Twilight 6:04 AM EDT 8:49 PM EDT
Astronomical Twilight 5:35 AM EDT 9:18 PM EDT
Moon 10:53 PM EDT (8/25) 11:33 AM EDT (8/25)
Length of Visible Light 13h 46m
Length of Day
12h 56m
Waning Gibbous, 76% of the Moon is Illuminated
Aug 25
Waning Gibbous
Aug 28
Last Quarter
Sep 5
New
Sep 12
First Quarter
Sep 19
Full

Hourly Weather History & Observations

Time (EDT) Temp. Heat Index Dew Point Humidity Pressure Visibility Wind Dir Wind Speed Gust Speed Precip Events Conditions
12:58 AM 80.1 °F 84.2 °F 73.0 °F 79% 30.15 in 10.0 mi ENE 5.8 mph - N/A   Scattered Clouds
1:58 AM 80.1 °F 84.2 °F 73.0 °F 79% 30.15 in 10.0 mi East 5.8 mph - N/A   Partly Cloudy
2:58 AM 79.0 °F - 73.0 °F 82% 30.14 in 10.0 mi NNE 3.5 mph - N/A   Partly Cloudy
3:58 AM 79.0 °F - 73.0 °F 82% 30.14 in 10.0 mi NNE 3.5 mph - N/A   Clear
4:27 AM 78.8 °F - 73.4 °F 83% 30.14 in 10.0 mi NE 5.8 mph - N/A   Mostly Cloudy
4:57 AM 79.0 °F - 73.0 °F 82% 30.14 in 10.0 mi NE 5.8 mph - N/A   Mostly Cloudy
5:01 AM 78.8 °F - 73.4 °F 83% 30.14 in 10.0 mi NNE 5.8 mph - N/A   Mostly Cloudy
5:24 AM 78.8 °F - 73.4 °F 83% 30.15 in 10.0 mi NNE 5.8 mph - N/A   Scattered Clouds
5:58 AM 78.1 °F - 73.0 °F 84% 30.16 in 10.0 mi NNE 4.6 mph - N/A   Partly Cloudy
6:58 AM 75.0 °F - 73.0 °F 94% 30.16 in 8.0 mi NNW 5.8 mph - N/A   Mostly Cloudy
7:58 AM 79.0 °F - 73.9 °F 84% 30.18 in 8.0 mi NE 11.5 mph - N/A   Scattered Clouds
8:51 AM 80.6 °F 85.4 °F 73.4 °F 79% 30.18 in 10.0 mi NE 9.2 mph - N/A   Mostly Cloudy
8:58 AM 80.1 °F 84.5 °F 73.9 °F 81% 30.18 in 10.0 mi NE 12.7 mph - N/A   Mostly Cloudy
9:58 AM 81.0 °F 85.2 °F 72.0 °F 74% 30.19 in 10.0 mi ENE 11.5 mph - N/A   Mostly Cloudy
10:58 AM 82.0 °F 87.4 °F 73.0 °F 74% 30.21 in 10.0 mi NE 12.7 mph - N/A   Clear
11:58 AM 82.0 °F 87.9 °F 73.9 °F 76% 30.21 in 10.0 mi NE 11.5 mph - N/A   Mostly Cloudy
12:09 PM 82.4 °F 88.2 °F 73.4 °F 74% 30.21 in 10.0 mi NE 11.5 mph - N/A   Mostly Cloudy
12:22 PM 82.4 °F 88.2 °F 73.4 °F 74% 30.21 in 10.0 mi NE 12.7 mph - N/A   Scattered Clouds
12:58 PM 82.9 °F 89.4 °F 73.9 °F 74% 30.20 in 10.0 mi NE 13.8 mph - N/A   Partly Cloudy
1:58 PM 82.9 °F 89.4 °F 73.9 °F 74% 30.18 in 10.0 mi NE 16.1 mph - N/A   Scattered Clouds
2:58 PM 82.9 °F 89.4 °F 73.9 °F 74% 30.17 in 10.0 mi NE 15.0 mph - N/A   Mostly Cloudy
3:02 PM 82.4 °F 88.2 °F 73.4 °F 74% 30.17 in 10.0 mi NE 17.3 mph - N/A   Scattered Clouds
3:24 PM 80.6 °F 85.4 °F 73.4 °F 79% 30.16 in 5.0 mi NNE 15.0 mph 24.2 mph N/A   Haze
3:52 PM 78.8 °F - 73.4 °F 83% 30.16 in 5.0 mi North 16.1 mph 21.9 mph 0.00 in Rain Light Rain
3:58 PM 79.0 °F - 73.9 °F 84% 30.16 in 5.0 mi NNE 12.7 mph 21.9 mph 0.00 in   Haze
4:02 PM 78.8 °F - 73.4 °F 83% 30.16 in 10.0 mi NE 17.3 mph 20.7 mph N/A   Mostly Cloudy
4:58 PM 81.0 °F 85.8 °F 73.0 °F 77% 30.16 in 10.0 mi NNE 17.3 mph 21.9 mph N/A   Overcast
5:56 PM 78.8 °F - 75.2 °F 89% 30.15 in 3.0 mi NNE 18.4 mph 28.8 mph 0.12 in Rain Rain
5:58 PM 78.1 °F - 75.0 °F 90% 30.15 in 4.0 mi NNE 18.4 mph 24.2 mph 0.12 in Rain Light Rain
6:08 PM 78.8 °F - 75.2 °F 89% 30.15 in 10.0 mi NNE 19.6 mph 26.5 mph 0.00 in Rain Light Rain
6:15 PM 80.6 °F 85.4 °F 73.4 °F 79% 30.15 in 10.0 mi NE 20.7 mph - 0.00 in   Overcast
6:25 PM 80.6 °F 86.2 °F 75.2 °F 84% 30.15 in 10.0 mi NE 18.4 mph 24.2 mph 0.00 in   Overcast
6:29 PM 80.6 °F 86.2 °F 75.2 °F 84% 30.16 in 10.0 mi NE 19.6 mph 24.2 mph 0.00 in   Overcast
6:48 PM 80.6 °F 85.4 °F 73.4 °F 79% 30.15 in 10.0 mi NE 25.3 mph 28.8 mph 0.00 in   Mostly Cloudy
6:56 PM 80.6 °F 85.4 °F 73.4 °F 79% 30.15 in 10.0 mi NNE 18.4 mph 24.2 mph 0.00 in   Mostly Cloudy
6:58 PM 80.1 °F 84.5 °F 73.9 °F 81% 30.15 in 10.0 mi NE 19.6 mph 25.3 mph 0.00 in   Mostly Cloudy
7:02 PM 80.6 °F 85.4 °F 73.4 °F 79% 30.15 in 10.0 mi NE 17.3 mph 25.3 mph N/A   Scattered Clouds
7:43 PM 78.8 °F - 73.4 °F 83% 30.17 in 10.0 mi NNE 17.3 mph 23.0 mph N/A   Mostly Cloudy
7:58 PM 79.0 °F - 73.0 °F 82% 30.17 in 10.0 mi NNE 17.3 mph 26.5 mph N/A   Mostly Cloudy
8:18 PM 78.8 °F - 73.4 °F 83% 30.17 in 10.0 mi NNE 16.1 mph - N/A   Scattered Clouds
8:29 PM 78.8 °F - 73.4 °F 83% 30.18 in 10.0 mi NNE 17.3 mph 21.9 mph N/A   Mostly Cloudy
8:58 PM 79.0 °F - 73.0 °F 82% 30.19 in 10.0 mi NE 18.4 mph - N/A   Mostly Cloudy
9:15 PM 78.8 °F - 71.6 °F 78% 30.19 in 10.0 mi NE 17.3 mph - N/A   Scattered Clouds
9:50 PM 78.8 °F - 73.4 °F 83% 30.20 in 10.0 mi NE 16.1 mph - N/A   Mostly Cloudy
9:58 PM 79.0 °F - 73.0 °F 82% 30.20 in 10.0 mi NE 13.8 mph 21.9 mph N/A   Mostly Cloudy
10:40 PM 78.8 °F - 73.4 °F 83% 30.20 in 10.0 mi NNE 12.7 mph 18.4 mph N/A   Scattered Clouds
10:58 PM 79.0 °F - 73.0 °F 82% 30.20 in 9.0 mi NNE 13.8 mph - N/A   Scattered Clouds
11:58 PM 79.0 °F - 73.9 °F 84% 30.20 in 10.0 mi NNE 12.7 mph - N/A   Mostly Cloudy